Regional Weather Roundup
Issued by NWS

Home | Current Version | Previous Version | Graphics & Text | Print | Product List | Glossary On
Versions: 1 2 3 4 5 6 7 8 9 10 11 12 13 14 15 16 17 18 19 20 21 22 23 24 25 26 27 28 29 30 31 32 33 34 35 36 37 38 39 40 41 42 43 44 45 46 47 48 49 50
000
ASUS44 KMEG 171910
RWRTN
TENNESSEE HOURLY STATE WEATHER ROUNDUP
NATIONAL WEATHER SERVICE MEMPHIS TN
200 PM CDT WED SEP 17 2014

TNZ002-004-019-021-049-052-054-088>092-172000-
WEST TENNESSEE

CITY           SKY/WX    TMP DP  RH WIND       PRES   REMARKS
MEMPHIS INTL   CLOUDY    76  59  55 E5        30.00S
NWS MEMPHIS      N/A     72 N/A N/A MISG        N/A
JACKSON        CLOUDY    71  56  58 N3        30.01S
DYERSBURG      CLOUDY    66  52  59 CALM      30.02F
UNION CITY     SUNNY     66  55  68 CALM      29.99F
PARIS          SUNNY     66  54  63 SE6       30.01F
HUNTINGDON     CLOUDY    67  54  63 E8        30.00F
LEXINGTON      SUNNY     70  55  60 NE3       30.00S
SAVANNAH       SUNNY     75  55  50 N6        30.00F
$$

TNZ008-025-027-028-033-062-065-066-172000-
NORTH MIDDLE TENNESSEE

CITY           SKY/WX    TMP DP  RH WIND       PRES   REMARKS
NASHVILLE      PTSUNNY   74  55  51 NW6       30.01F
DICKSON        PTSUNNY   68  57  68 N5        30.01
CLARKSVILLE    CLOUDY    71  55  56 N7        30.02F
LEBANON        PTSUNNY   71  54  55 NW6       29.99F
SMYRNA         PTSUNNY   71  55  56 N9        30.01F
COOKEVILLE     SUNNY     73  55  53 N3        30.00F
LIVINGSTON     MOSUNNY   68  52  56 NW5       30.01F
GALLATIN       PTSUNNY   72  58  61 N3        30.02F
CROSSVILLE     MOSUNNY   70  49  47 MISG      30.01F
$$

TNZ061-075-076-078-094-096-097-172000-
SOUTH MIDDLE TENNESSEE

CITY           SKY/WX    TMP DP  RH WIND       PRES   REMARKS
LEWISBURG      PTSUNNY   69  57  65 CALM      30.00F
FAYETTEVILLE   SUNNY     72  54  53 VRB3      29.99S
TULLAHOMA      SUNNY     72  55  56 N5        29.99F
WINCHESTER     SUNNY     73  55  53 NE6       29.98F
MCMINNVILLE    SUNNY     72  57  60 NE6       29.99F
COLUMBIA       SUNNY     70  57  64 CALM      29.99F
SHELBYVILLE    SUNNY     73  57  56 VRB6      29.99F
$$

TNZ017-018-042-046-047-172000-
NORTHEAST TENNESSEE

CITY           SKY/WX    TMP DP  RH WIND       PRES   REMARKS
TRI CITIES     MOSUNNY   76  57  51 NW7       29.97S
ELIZABETHTON   PTCLDY    75  59  57 VRB7      29.97R
$$

TNZ012-013-036-069-073-074-172000-
CENTRAL EAST TENNESSEE

CITY           SKY/WX    TMP DP  RH WIND       PRES   REMARKS
KNOXVILLE      MOSUNNY   75  56  51 CALM      29.96F
OAK RIDGE      SUNNY     76  55  48 VRB5      29.98F
GATLINBURG     MOCLDY    73  57  56 VRB3      29.96F
MORRISTOWN     PTCLDY    73  55  53 N6        29.98F
$$

TNZ083-085-099-172000-
SOUTHEAST TENNESSEE

CITY           SKY/WX    TMP DP  RH WIND       PRES   REMARKS
CHATTANOOGA    PTSUNNY   77  56  48 CALM      29.96F
$$

SKY/WX REPORTED AS FAIR MEANS FEW OR NO CLOUDS BELOW
12 THOUSAND FEET.



USA.gov is the U.S. government's official web portal to all federal, state and local government web resources and services.